Flag for Canada Weather past 2 weeks in Burnaby, British Columbia, Canada

Now
57 °F

Light rain. Overcast.


Feels Like: 55 °F
Forecast: 53 / 62 °F
Wind: 9 mph from East

Location: Vancouver International Air-Port

Current Time: Jul 24, 2014 at 1:50:30 AM

Latest Report: Jul 24, 2014 at 1:00 AM


Visibility: 12 mi

Pressure: 30.02 "Hg

Humidity: 94%

Dew point: 55 °F

Location of BurnabyLocation

Historic Weather in Burnaby — Graph

°F

Burnaby temperature yesterday

Maximum temperature yesterday: 66 °F (at 11:00 AM)
Minimum temperature yesterday: 57 °F (at 8:00 PM)
Average temperature yesterday: 62 °F

Past Weeks' High & Low Weather Summary

 TemperatureHumidityPressure
High81 °F (Jul 14, 7:00 PM)94% (Jul 13, 4:00 AM)30.13 "Hg (Jul 13, 4:00 AM)
Low57 °F (Jul 15, 5:00 AM)45% (Jul 14, 7:00 PM)29.88 "Hg (Jul 10, 8:00 PM)
Average67 °F73%29.99 "Hg
* Reported Midnight between Jul 8 and Jul 9 — Midnight between Jul 23 and Jul 24, Burnaby, Weather by CustomWeather, © 2014

Note: Actual official high and low records may vary slightly from our data, if they occured in-between our weather recording intervals... More about our weather records

Advertising

Burnaby weather history for previous 24 hours

 ConditionsComfort  
Time TempWeatherWind HumidityBarometerVisibility
12:00 AM
Jul 24
57 °FOvercast.9 mph94%30.02 "Hg12 mi
11:00 PM
Jul 23
57 °FOvercast.9 mph94%30.02 "Hg12 mi
10:00 PM57 °FLight rain. More clouds than sun.10 mph94%30.02 "Hg10 mi
9:00 PM57 °FLight rain. Mostly cloudy.10 mph94%30.03 "Hg10 mi
8:00 PM57 °FLight rain. Fog.10 mph94%30.01 "Hg6 mi
7:00 PM61 °FLight rain. Overcast.13 mph77%29.97 "Hg10 mi
6:00 PM61 °FLight rain. Cloudy.15 mph88%29.96 "Hg15 mi
5:00 PM63 °FSprinkles. Low clouds.13 mph83%29.96 "Hg12 mi
4:00 PM63 °FLight rain. Cloudy.10 mph88%29.96 "Hg12 mi
3:00 PM66 °FMostly cloudy.17 mph78%29.98 "Hg15 mi
2:00 PM66 °FSprinkles. Cloudy.15 mph83%29.98 "Hg15 mi
1:53 PM66 °FSprinkles. Cloudy.12 mph78%29.98 "Hg15 mi
1:00 PM64 °FSprinkles. Cloudy.10 mph83%29.98 "Hg15 mi
12:00 PM66 °FCloudy.12 mph83%29.98 "Hg15 mi
11:00 AM66 °FLight rain. Cloudy.9 mph83%29.96 "Hg15 mi
10:00 AM64 °FMore clouds than sun.6 mph83%29.96 "Hg20 mi
9:54 AM64 °FMostly cloudy.7 mph83%29.96 "Hg20 mi
9:00 AM63 °FLight rain. Mostly cloudy.2 mph88%29.96 "Hg30 mi
8:00 AM63 °FMostly cloudy.No wind83%29.94 "Hg30 mi
7:00 AM63 °FMostly cloudy.No wind83%29.96 "Hg30 mi
6:00 AM59 °FPassing clouds.3 mph88%29.96 "Hg20 mi
3:00 AM61 °FPassing clouds.No wind83%30.00 "Hg20 mi
2:00 AM59 °FPassing clouds.5 mph88%30.01 "Hg20 mi
1:00 AM63 °FPassing clouds.3 mph77%30.02 "Hg20 mi
Weather by CustomWeather, © 2014

See weather overviewHow to use our weather pages